Total_Precipitation_Accumulation
-0.01 -0.01 -0.03 -0.01 0.00 0.00 0.00 0.00 0.07 0.07 0.11 0.13 0.08 0.08 -0.03 -0.02 -0.02 -0.03 -0.01 -0.00 -0.00 0.00 0.00 0.00 0.00 0.00 0.00 0.00 0.00 0.00 0.00 0.00 0.04 0.04 0.03 0.00 0.00 0.00 0.00 0.00 0.00 0.00 0.00 0.00 0.00 0.00 0.00 0.00 0.00 0.00 0.00 0.00 0.00 0.00 0.00 0.00 0.00 0.00 0.00 0.00 0.00 0.00 0.00 0.00 0.00 0.00 0.00 0.00 0.00 0.00 0.00 0.00 0.00 0.00 0.00 0.06 0.06 0.02 -0.01 -0.03 -0.03 -0.03 -0.02 -0.02 0.00 0.00 0.00 0.00 0.00 0.00 0.01 0.00 0.00 0.00 0.00 0.00 0.00 0.00 0.00 -0.00 -0.00 -0.00 -0.00
-0.01 -0.01 -0.09 -0.00 0.00 0.00 0.00 0.00 0.15 0.15 0.11 0.09 0.11 0.11 -0.01 0.00 0.00 -0.05 -0.02 -0.01 -0.01 0.00 0.00 0.00 0.00 0.00 0.00 0.00 0.00 0.00 0.00 0.01 0.05 0.05 0.01 0.00 0.00 0.00 0.00 0.00 0.00 0.00 0.00 0.00 0.00 0.00 0.00 0.00 0.00 0.00 0.00 0.00 0.00 0.00 0.00 0.00 0.00 0.00 0.00 0.00 0.00 0.00 0.00 0.00 0.00 0.00 0.00 0.00 0.00 0.00 0.00 0.00 0.00 0.00 0.04 0.09 0.09 0.04 0.01 -0.00 -0.00 -0.00 -0.00 -0.00 0.00 0.00 0.00 0.01 0.00 0.00 0.00 0.00 0.00 0.00 0.00 0.00 0.00 0.00 0.00 -0.00 -0.00 -0.00 -0.00
-0.00 -0.00 -0.02 0.00 0.00 0.00 0.00 0.01 0.16 0.16 0.10 0.09 0.02 0.02 -0.00 -0.01 -0.01 -0.02 -0.01 -0.00 -0.00 0.00 0.00 0.00 0.00 0.00 0.00 0.00 0.00 0.00 0.00 0.02 0.03 0.03 0.00 0.00 0.00 0.00 0.00 0.00 0.00 0.00 0.00 0.00 0.00 0.00 0.00 0.00 0.00 0.00 0.00 0.00 0.00 0.00 0.00 0.00 0.00 0.00 0.00 0.00 0.00 0.00 0.00 0.00 0.00 0.00 0.00 0.00 0.00 0.00 0.00 0.03 0.05 0.05 0.08 0.05 0.05 0.02 -0.00 0.00 0.00 -0.00 -0.00 -0.00 0.01 0.01 0.01 0.00 0.00 0.00 0.00 0.00 0.00 0.00 0.00 0.00 0.00 0.00 0.00 0.00 0.00 0.00 0.00
0.00 0.00 -0.00 0.00 0.00 0.00 0.01 0.03 0.11 0.11 0.12 0.11 0.06 0.06 0.01 -0.01 -0.01 -0.09 -0.00 -0.01 -0.01 -0.00 0.00 0.00 0.00 0.00 0.00 0.00 0.00 0.00 0.00 0.01 0.00 0.00 0.00 0.00 0.00 0.00 0.00 0.00 0.00 0.00 0.00 0.00 0.00 0.00 0.00 0.00 0.00 0.00 0.00 0.00 0.00 0.00 0.00 0.00 0.00 0.00 0.00 0.00 0.00 0.00 0.00 0.00 0.00 0.00 0.00 0.00 0.00 0.00 0.00 0.05 0.10 0.10 0.09 0.01 0.01 0.01 0.00 -0.00 -0.00 0.00 0.00 0.00 0.00 0.00 0.00 0.00 0.00 0.00 0.00 0.00 0.00 0.00 0.00 0.00 0.00 0.00 0.00 0.00 0.00 0.00 0.00
0.00 0.00 0.00 0.00 0.00 0.00 0.01 0.06 0.17 0.17 0.01 0.02 0.06 0.06 -0.04 -0.01 -0.01 -0.08 -0.00 -0.01 -0.01 -0.00 0.00 0.00 0.00 0.00 0.00 0.00 0.00 0.00 0.00 0.00 0.00 0.00 0.00 0.00 0.00 0.00 0.00 0.00 0.00 0.00 0.00 -0.00 -0.00 -0.00 0.00 0.00 0.00 0.00 0.00 0.00 0.00 0.00 0.00 0.00 0.00 0.00 0.00 0.00 0.00 0.00 0.00 0.00 0.00 0.00 0.00 0.00 0.00 0.00 0.03 0.08 0.08 0.08 0.05 0.01 0.01 0.01 0.00 0.00 0.00 0.00 0.00 0.00 0.00 0.00 0.00 0.00 0.00 0.00 0.00 0.00 0.00 0.00 0.00 0.00 0.00 0.00 0.00 0.00 0.00 0.00 0.00
0.00 0.00 0.00 0.00 0.01 0.01 0.01 0.14 0.12 0.12 -0.03 0.02 0.06 0.06 0.00 -0.01 -0.01 -0.08 0.00 -0.00 -0.00 0.00 0.00 0.00 0.00 0.00 0.00 0.00 0.00 0.00 0.00 0.00 0.00 0.00 0.00 0.00 0.00 0.00 0.00 0.00 0.00 0.00 0.00 0.00 -0.00 -0.00 0.00 0.00 0.00 0.00 0.00 0.00 0.00 0.00 0.00 0.00 0.00 0.00 0.00 0.00 0.00 0.00 0.00 0.00 0.00 0.00 0.00 0.00 0.03 0.03 0.05 0.07 0.05 0.05 0.01 0.01 0.01 0.00 0.00 0.00 0.00 0.00 0.00 0.00 0.00 0.00 0.00 0.00 0.00 0.00 0.00 0.00 0.00 0.00 0.00 -0.00 -0.00 -0.00 0.00 0.00 0.00 0.00 0.00
0.01 0.00 0.00 0.00 0.03 0.03 0.02 0.21 0.09 0.09 -0.02 0.02 0.02 0.02 -0.01 -0.00 -0.00 -0.05 0.00 0.00 0.00 0.00 0.00 0.00 0.00 0.00 0.00 0.00 0.00 0.00 0.00 0.00 0.00 0.00 0.00 0.00 0.00 0.00 0.00 0.00 0.00 0.00 0.00 0.00 -0.00 -0.00 0.00 0.00 0.00 0.00 0.00 0.00 0.00 0.00 0.00 0.00 0.00 0.00 0.00 0.00 0.00 0.00 0.00 0.00 0.00 0.00 0.01 0.02 0.06 0.06 0.08 0.06 0.01 0.01 0.01 0.00 0.00 0.00 0.00 0.00 0.00 0.00 0.00 0.00 0.00 0.00 0.00 0.00 0.00 0.00 0.00 0.00 0.00 0.00 0.00 -0.00 -0.00 -0.00 -0.00 -0.00 -0.00 0.00 0.00
0.01 0.00 0.00 0.00 0.04 0.04 0.04 0.14 0.14 0.14 0.07 0.05 -0.00 -0.00 -0.02 0.00 0.00 -0.02 0.00 0.00 0.00 0.00 0.00 0.00 0.00 0.00 0.00 0.00 0.00 0.00 0.00 0.00 0.00 0.00 0.00 0.00 0.00 0.00 0.00 0.00 0.00 0.00 0.00 0.00 0.00 0.00 0.00 0.00 0.00 0.00 0.00 0.00 0.00 0.00 0.00 0.00 0.00 0.00 0.00 0.00 0.00 0.00 -0.00 0.00 0.00 0.00 0.03 0.05 0.07 0.07 0.05 0.01 0.00 0.00 0.00 0.00 0.00 0.00 0.00 0.00 0.00 0.00 -0.00 0.00 0.00 0.00 0.00 0.00 0.00 0.00 0.00 0.00 0.00 0.00 0.00 0.00 0.00 -0.00 -0.00 -0.00 -0.00 0.00 0.00
-0.09 -0.02 0.00 0.00 0.02 0.02 0.05 0.11 0.10 0.10 0.06 0.03 -0.01 -0.01 -0.03 -0.00 -0.00 -0.00 0.00 0.00 0.00 0.00 0.00 0.00 0.00 0.00 0.00 0.00 0.00 0.00 0.00 0.00 0.00 0.00 0.00 0.00 0.00 0.00 0.00 0.00 0.00 0.00 0.00 0.00 0.00 0.00 0.00 0.00 0.00 0.00 0.00 0.00 0.00 0.00 0.00 0.00 0.00 0.00 0.00 0.00 0.00 0.00 -0.02 0.00 0.01 0.01 0.02 0.10 0.09 0.09 0.02 -0.02 -0.01 -0.01 0.00 0.00 0.00 0.00 0.00 0.00 0.00 0.00 -0.00 0.00 0.00 0.00 0.00 0.00 0.00 0.00 0.00 0.00 0.00 0.00 0.00 0.00 0.00 0.00 -0.00 -0.00 -0.00 0.00 0.00
-0.03 -0.03 0.00 0.01 0.04 0.04 0.07 0.09 0.08 0.08 0.02 0.00 -0.02 -0.02 -0.05 -0.05 -0.05 0.00 0.00 0.00 0.00 0.00 0.00 0.00 0.00 0.00 0.00 0.00 0.00 0.00 0.00 0.00 0.00 0.00 0.00 0.00 0.00 0.00 0.00 0.00 0.00 0.00 0.00 0.00 0.00 0.00 0.00 0.00 0.00 0.00 0.00 0.00 0.00 0.00 0.00 0.00 0.00 0.00 0.00 0.00 0.00 0.00 -0.02 0.00 0.01 0.01 0.08 0.12 0.07 0.07 0.03 -0.03 -0.01 -0.01 0.00 0.00 0.00 0.00 0.00 0.00 0.00 0.00 0.00 -0.00 0.00 0.00 0.00 0.00 0.00 0.00 0.00 0.00 0.00 0.00 0.00 0.00 0.00 0.00 -0.00 -0.00 -0.00 0.00 0.00
-0.08 -0.02 0.00 0.04 0.07 0.07 0.10 0.09 0.10 0.10 0.09 0.01 -0.02 -0.02 -0.06 -0.02 -0.02 -0.00 0.00 0.00 0.00 0.00 0.00 0.00 0.00 0.00 0.00 0.00 0.00 0.00 0.00 0.00 0.00 0.00 0.00 0.00 0.00 0.00 0.00 0.00 0.00 0.00 0.00 0.00 0.00 0.00 0.00 0.00 0.00 0.00 0.00 0.00 0.00 0.00 0.00 0.00 0.00 0.00 0.00 0.00 0.00 0.00 0.00 0.00 0.00 0.00 0.13 0.13 0.05 0.05 0.01 0.00 -0.00 -0.00 0.00 0.00 0.00 0.00 -0.00 0.00 0.00 0.00 0.00 0.00 0.00 0.00 0.00 0.00 0.00 0.00 0.00 0.00 0.00 0.00 0.00 0.00 0.00 0.00 0.00 -0.00 -0.00 0.00 0.00
-0.01 -0.03 0.00 0.05 0.09 0.09 0.15 0.14 0.15 0.15 0.04 0.00 0.00 0.00 -0.10 -0.28 -0.28 -0.08 0.00 0.00 0.00 0.00 0.00 0.00 0.00 0.00 0.00 0.00 0.00 0.00 0.00 0.00 0.00 0.00 0.00 0.00 0.00 0.00 0.00 0.00 0.00 0.00 0.00 0.00 0.00 0.00 0.00 0.00 0.00 0.00 0.00 0.00 0.00 0.00 0.00 0.00 0.00 0.00 0.00 0.00 0.00 0.00 0.00 0.00 0.02 0.02 0.12 0.09 0.06 0.06 0.00 0.00 0.00 0.00 0.00 0.00 0.00 0.00 0.00 0.00 0.00 0.00 0.00 0.00 0.00 0.00 0.00 0.00 0.00 0.00 0.00 0.00 0.00 0.00 0.00 0.00 0.00 0.00 0.00 0.00 0.00 0.00 0.00
-0.01 -0.00 0.00 0.06 0.04 0.04 0.15 0.14 0.17 0.17 0.03 0.00 0.00 0.00 -0.13 -0.27 -0.27 -0.12 -0.05 -0.01 -0.01 -0.01 0.00 0.00 0.00 0.00 0.00 0.00 0.00 0.00 0.00 0.00 0.00 0.00 0.00 0.00 0.00 0.00 0.00 0.00 0.00 0.00 0.00 0.00 0.00 0.00 0.00 0.00 0.00 0.00 0.00 0.00 0.00 0.00 0.00 0.00 0.00 0.00 0.00 0.00 0.00 0.00 0.00 0.00 0.02 0.02 0.09 0.07 0.03 0.03 0.01 0.00 0.00 0.00 0.00 0.00 0.00 0.00 0.00 0.00 0.00 0.00 0.00 0.00 0.00 0.00 0.00 0.00 0.00 0.00 0.00 0.00 0.00 0.00 0.00 0.00 0.00 0.00 0.00 0.00 0.00 0.00 0.00
-0.02 -0.01 -0.00 0.08 0.08 0.08 0.16 0.15 0.14 0.14 0.04 0.00 0.00 0.00 0.00 -0.24 -0.24 -0.13 -0.12 -0.04 -0.04 -0.07 -0.00 0.00 0.00 0.00 0.00 0.00 0.00 0.00 0.00 0.00 0.00 0.00 0.00 0.00 0.00 0.00 0.00 0.00 0.00 0.00 0.00 0.00 0.00 0.00 0.00 0.00 0.00 0.00 0.00 0.00 0.00 0.00 0.00 0.00 0.00 0.00 0.00 0.00 0.00 0.00 0.00 0.00 0.02 0.02 0.05 0.06 0.02 0.02 0.01 0.00 0.00 0.00 0.00 0.00 0.00 0.00 0.00 0.00 0.00 0.00 0.00 0.00 0.00 0.00 0.00 0.00 0.00 0.00 0.00 0.00 0.00 0.00 0.00 0.00 0.00 0.00 0.00 0.00 0.00 0.00 0.00
-0.05 -0.07 -0.01 0.07 0.10 0.10 0.15 0.09 0.14 0.14 0.04 0.01 0.00 0.00 0.00 -0.24 -0.24 -0.17 -0.11 -0.03 -0.03 -0.17 -0.06 0.00 0.00 0.00 0.00 0.00 0.00 0.00 0.00 0.00 0.00 0.00 0.00 0.00 0.00 0.00 0.00 0.00 0.00 0.00 -0.00 0.00 -0.00 -0.00 0.00 0.00 0.00 0.00 0.00 0.00 0.00 0.00 0.00 0.00 0.00 0.00 0.00 0.00 0.00 0.00 0.00 0.00 0.00 0.00 0.02 0.03 0.02 0.02 0.00 0.00 0.00 0.00 0.00 0.00 0.00 0.00 0.00 0.00 0.00 0.00 0.00 0.00 0.00 0.00 0.00 0.00 0.00 0.00 0.00 0.00 0.00 0.00 0.00 0.00 0.00 0.00 0.00 0.00 0.00 0.00 0.00
0.00 -0.04 -0.02 0.08 0.07 0.07 0.11 0.07 0.11 0.11 0.09 0.01 -0.01 -0.01 0.00 -0.13 -0.13 -0.25 -0.11 -0.14 -0.14 -0.09 -0.17 -0.04 0.00 0.00 0.00 0.00 0.00 0.00 0.00 0.00 0.00 0.00 0.00 0.00 0.00 0.00 0.00 0.00 0.00 0.00 0.00 -0.00 -0.00 -0.00 -0.00 0.00 0.00 0.00 0.00 0.00 0.00 0.00 0.00 0.00 0.00 0.00 0.00 0.00 0.00 0.00 0.00 0.00 0.00 0.00 0.00 0.00 0.01 0.01 0.00 0.00 0.00 0.00 0.00 0.00 0.00 0.00 0.00 0.00 0.00 0.00 0.00 0.00 0.00 0.00 0.00 0.00 0.00 0.00 0.00 0.00 0.00 0.00 0.00 0.00 0.00 0.00 0.00 0.00 0.00 0.00 0.00
-0.01 -0.03 0.00 0.08 0.06 0.06 0.07 0.04 0.12 0.12 0.02 -0.07 -0.04 -0.04 -0.02 -0.01 -0.01 -0.21 -0.16 -0.02 -0.02 -0.13 -0.30 -0.37 0.00 0.00 0.00 0.00 0.00 0.00 0.00 0.00 0.00 0.00 0.00 0.00 0.00 0.00 0.00 0.00 0.00 0.00 0.00 -0.00 -0.00 -0.00 -0.00 0.00 0.00 0.00 0.00 0.00 0.00 0.00 0.00 0.00 0.00 0.00 0.00 0.00 0.00 0.00 0.00 0.00 0.00 0.00 0.00 0.00 0.00 0.00 0.00 0.00 0.00 0.00 0.00 0.00 0.00 0.00 0.00 0.00 0.00 -0.00 0.00 0.00 0.00 0.00 0.00 0.00 0.00 0.00 0.00 0.00 0.00 0.00 0.00 0.00 0.00 0.00 0.00 0.00 0.00 0.00 0.00
-0.03 -0.07 -0.01 0.09 0.05 0.05 0.05 0.09 0.13 0.13 -0.05 0.00 0.04 0.04 0.02 -0.00 -0.00 -0.11 -0.19 -0.01 -0.01 -0.00 -0.26 -0.35 -0.11 -0.11 0.00 0.00 0.00 0.00 0.00 0.00 0.00 0.00 0.01 0.00 0.00 0.00 0.00 0.00 0.00 -0.00 -0.00 -0.00 -0.00 -0.00 0.00 0.00 0.00 0.00 0.00 0.00 0.00 0.00 0.00 0.00 0.00 0.00 0.00 0.00 0.00 0.00 0.00 0.00 0.00 0.00 0.00 0.00 0.00 0.00 0.00 0.00 0.00 0.00 0.00 0.00 0.00 0.00 0.00 0.00 0.00 -0.00 0.00 0.00 0.00 0.00 0.00 0.00 0.00 0.00 0.00 0.00 0.00 0.00 0.00 0.00 0.00 0.00 0.00 0.00 0.00 0.00 0.00
-0.12 -0.01 0.01 0.11 0.06 0.06 0.04 -0.01 0.01 0.01 0.04 0.06 0.04 0.04 0.02 0.05 0.05 -0.09 -0.09 -0.02 -0.02 -0.01 -0.10 -0.19 -0.09 -0.09 -0.00 0.00 0.00 0.00 0.00 0.00 0.00 0.00 0.01 0.00 0.00 0.00 0.00 -0.00 -0.00 -0.00 -0.00 -0.00 -0.00 -0.00 0.00 0.00 0.00 0.00 0.00 0.00 0.00 0.00 0.00 0.00 0.00 0.00 0.00 0.00 0.00 0.00 0.00 0.00 0.00 0.00 0.00 0.00 0.00 0.00 0.00 0.00 0.00 0.00 0.00 0.00 0.00 0.00 0.00 0.00 0.00 0.00 -0.00 -0.00 0.00 0.00 0.00 0.00 0.00 0.00 0.00 0.00 0.00 0.00 0.00 0.00 0.00 0.00 0.00 0.00 0.00 0.00 0.00
0.11 0.01 0.02 0.06 0.05 0.05 0.03 0.21 0.16 0.16 0.09 0.09 0.06 0.06 0.05 0.01 0.01 0.03 0.10 -0.01 -0.01 0.00 -0.00 -0.02 -0.01 -0.01 -0.02 -0.00 0.00 0.00 0.00 0.00 0.00 0.00 0.00 0.00 0.00 0.01 0.01 -0.00 -0.00 -0.00 -0.00 -0.00 -0.00 -0.00 -0.00 0.00 0.00 0.00 0.00 0.00 0.00 0.00 0.00 0.00 0.00 0.00 0.00 0.00 0.00 0.00 0.00 0.00 0.00 0.00 0.00 0.00 0.00 0.00 0.00 0.00 0.00 0.00 0.00 0.00 0.00 0.00 0.00 0.00 0.00 0.00 0.00 0.00 -0.00 -0.00 -0.00 0.00 0.00 0.00 0.00 0.00 0.00 0.00 0.00 0.00 0.00 0.00 0.00 0.00 0.00 0.00 0.00
0.06 0.04 0.04 0.04 0.03 0.03 -0.02 0.19 0.11 0.11 0.13 0.13 0.12 0.12 0.08 0.01 0.01 0.03 0.06 -0.02 -0.02 0.00 -0.00 0.01 0.00 0.00 -0.01 -0.00 0.00 0.00 0.00 0.00 0.00 0.00 0.00 0.00 0.00 0.01 0.00 0.00 0.00 -0.00 -0.00 -0.00 -0.00 -0.00 0.00 0.00 0.00 0.00 0.00 0.00 0.00 0.00 0.00 0.00 0.00 0.00 0.00 0.00 0.00 0.00 0.00 0.00 0.00 0.00 0.00 0.00 0.00 0.00 0.00 0.00 0.00 0.00 0.00 0.00 0.00 0.00 0.00 0.00 0.00 0.00 0.00 0.00 -0.00 -0.00 -0.00 0.00 0.00 0.00 0.00 0.00 0.00 0.00 0.00 0.00 0.00 0.00 0.00 0.00 0.00 0.00 0.00
0.14 0.03 0.05 0.03 0.03 0.03 0.05 0.06 0.04 0.04 0.09 0.14 0.14 0.14 0.10 0.03 0.03 0.00 0.04 0.01 0.01 -0.00 0.01 0.01 0.00 0.00 0.00 -0.00 0.00 0.00 0.00 0.00 0.00 0.00 0.00 0.00 0.00 0.01 0.00 0.00 0.00 -0.00 -0.00 -0.00 0.00 0.00 0.00 0.00 0.00 0.00 0.00 0.00 0.00 0.00 0.00 0.00 0.00 0.00 0.00 0.00 0.00 0.00 0.00 0.00 0.00 0.00 0.00 0.00 0.00 0.00 0.00 0.00 0.00 0.00 0.00 0.00 0.00 0.00 0.00 0.00 0.00 0.00 0.00 0.00 0.00 0.00 0.00 0.00 0.00 0.00 0.00 0.00 0.00 0.00 0.00 0.00 0.00 0.00 0.00 0.00 0.00 0.00 0.00
0.07 -0.01 0.07 0.03 0.03 0.03 0.05 0.08 0.10 0.10 0.08 0.18 0.15 0.15 0.11 0.02 0.02 -0.01 0.05 0.02 0.02 -0.00 0.00 0.00 0.00 0.00 0.00 0.00 0.00 0.00 0.00 0.00 0.00 0.00 0.00 0.00 0.00 0.00 0.00 0.00 0.00 -0.00 -0.00 -0.00 0.00 0.00 -0.00 0.00 0.00 0.00 0.00 0.00 0.00 0.00 0.00 0.00 0.00 0.00 0.00 0.00 0.00 0.00 0.00 0.00 0.00 0.00 0.00 0.00 0.00 0.00 0.00 0.00 0.00 0.00 0.00 0.00 0.00 0.00 0.00 0.00 0.00 0.00 0.00 0.00 0.00 0.00 0.00 0.00 0.00 0.00 0.00 0.00 0.00 0.00 0.00 0.00 0.00 0.00 0.00 0.00 0.00 0.00 0.00
0.02 -0.00 0.07 0.04 0.02 0.02 0.08 0.11 0.10 0.10 0.08 0.23 0.18 0.18 0.13 -0.00 -0.00 -0.02 0.06 0.01 0.01 -0.03 -0.00 0.00 0.00 0.00 0.00 0.00 0.00 0.00 0.00 0.00 0.00 0.00 0.00 0.00 0.00 0.00 0.00 0.00 0.00 -0.00 -0.00 -0.00 -0.00 -0.00 -0.00 0.00 0.00 0.00 0.00 0.00 0.00 0.00 0.00 0.00 0.00 0.00 0.00 0.00 0.00 0.00 0.00 0.00 0.00 0.00 0.00 0.00 0.00 0.00 0.00 0.00 0.00 0.00 -0.00 0.00 0.00 0.00 0.00 0.00 0.00 0.00 0.00 0.00 0.00 0.00 0.00 0.00 0.00 0.00 0.00 0.00 0.00 0.00 0.00 0.00 0.00 0.00 0.00 0.00 0.00 0.00 0.00
-0.04 -0.11 0.07 0.04 0.03 0.03 0.09 0.12 0.06 0.06 0.05 0.23 0.16 0.16 0.20 -0.06 -0.06 -0.09 -0.05 -0.11 -0.11 -0.14 -0.03 -0.01 0.00 0.00 0.00 0.00 0.00 0.00 0.00 0.01 0.00 0.00 0.00 0.00 0.00 0.00 0.00 0.00 0.00 -0.00 -0.00 -0.00 -0.00 -0.00 -0.00 0.00 0.00 0.00 0.00 0.00 0.00 0.00 0.00 0.00 0.00 0.00 0.00 0.00 0.00 0.00 0.00 0.00 0.00 0.00 0.00 0.00 0.00 0.00 0.00 0.00 -0.00 -0.00 0.00 -0.00 -0.00 0.00 -0.00 0.00 0.00 0.00 0.00 0.00 0.00 0.00 0.00 0.00 0.00 0.00 0.00 0.00 0.00 0.00 0.00 0.00 0.00 0.00 0.00 0.00 0.00 0.00 0.00
0.04 -0.04 0.02 0.04 0.02 0.02 0.07 0.09 0.04 0.04 0.03 0.14 0.17 0.17 0.22 -0.04 -0.04 -0.17 0.03 -0.08 -0.08 -0.14 -0.09 -0.04 -0.02 -0.02 0.00 0.01 0.01 0.01 0.00 0.01 0.00 0.00 -0.01 -0.01 -0.01 0.00 0.00 0.00 0.00 0.00 -0.00 -0.00 -0.00 -0.00 -0.00 -0.00 0.00 0.00 0.00 0.00 0.00 0.00 0.00 0.00 0.00 0.00 0.00 0.00 0.00 0.00 0.00 0.00 0.00 0.00 0.00 0.00 0.00 0.00 0.00 0.00 0.00 0.00 0.00 -0.00 -0.00 -0.02 -0.03 -0.01 -0.01 0.01 0.00 0.00 0.00 0.00 0.00 0.00 0.00 0.00 0.00 0.00 0.00 0.00 0.00 0.00 0.00 0.00 0.00 0.00 0.00 0.00 0.00
0.20 -0.00 0.06 0.09 -0.01 -0.01 0.05 0.06 0.05 0.05 0.04 0.06 0.21 0.21 0.23 0.13 0.13 -0.10 0.01 -0.05 -0.05 -0.14 -0.19 -0.09 -0.05 -0.05 -0.01 -0.02 0.00 0.00 0.00 0.00 0.00 0.00 0.00 -0.01 -0.01 0.00 0.00 0.00 0.00 0.00 -0.00 -0.00 -0.00 -0.00 -0.00 -0.00 0.00 0.00 0.00 0.00 0.00 0.00 0.00 0.00 0.00 0.00 0.00 0.00 0.00 0.00 0.00 0.00 0.00 0.00 0.00 0.00 0.00 0.00 0.00 0.00 0.00 0.00 0.00 -0.00 -0.00 -0.00 -0.01 -0.02 -0.02 -0.02 0.00 -0.01 -0.00 -0.00 0.00 0.00 0.00 0.00 0.00 0.00 0.00 0.00 0.00 0.00 0.00 0.00 0.00 0.00 0.00 0.00 0.00
0.48 0.22 0.15 0.12 0.09 0.09 -0.02 0.07 0.03 0.03 0.03 0.05 0.14 0.14 0.25 0.22 0.22 -0.01 0.11 0.01 0.01 -0.09 -0.21 -0.19 -0.14 -0.14 -0.11 -0.04 -0.06 -0.06 -0.06 -0.06 -0.02 -0.02 0.00 0.00 0.00 0.00 0.00 0.00 0.00 0.00 -0.00 -0.00 -0.00 -0.00 -0.00 -0.00 -0.00 -0.00 0.00 0.00 0.00 0.00 0.00 0.00 0.00 0.00 0.00 0.00 0.00 0.00 0.00 0.00 0.00 0.00 0.00 0.00 0.00 0.00 0.00 0.00 0.00 0.00 0.00 0.00 0.00 -0.00 -0.01 -0.03 -0.03 -0.02 -0.02 -0.01 -0.01 -0.01 -0.00 0.00 0.00 0.00 0.00 0.00 0.00 0.00 0.00 0.00 0.00 0.00 0.01 0.00 0.00 0.00 0.00
0.75 0.44 0.39 0.23 0.12 0.12 0.10 0.04 -0.00 -0.00 0.04 0.06 0.11 0.11 0.25 0.24 0.24 0.13 0.09 0.20 0.20 -0.04 -0.13 -0.25 -0.25 -0.25 -0.25 -0.14 -0.12 -0.12 -0.09 -0.12 -0.13 -0.13 -0.01 -0.00 -0.00 0.00 0.00 0.00 0.00 -0.00 -0.00 -0.00 -0.00 -0.00 -0.00 -0.00 -0.00 -0.00 -0.00 -0.00 0.00 0.00 0.00 0.00 0.00 0.00 0.00 0.00 0.00 0.00 0.00 0.00 0.00 0.00 0.00 0.00 0.00 0.00 0.00 0.00 0.00 0.00 0.00 0.00 0.00 0.00 0.00 -0.00 -0.00 -0.02 -0.03 -0.02 -0.01 -0.01 -0.00 0.02 0.00 0.00 0.00 0.00 0.00 0.00 0.00 0.00 0.00 0.00 0.00 0.00 0.00 0.00 0.00
0.93 1.04 0.71 0.39 0.24 0.24 0.07 0.10 -0.00 -0.00 0.01 0.04 0.09 0.09 0.23 0.23 0.23 0.17 0.14 0.22 0.22 0.05 -0.12 -0.20 -0.27 -0.27 -0.34 -0.17 -0.22 -0.22 -0.14 -0.16 -0.24 -0.24 -0.17 -0.04 -0.04 0.00 0.01 0.00 0.00 0.00 0.00 -0.00 -0.00 -0.00 -0.00 -0.00 -0.00 -0.00 -0.00 -0.00 0.00 0.00 0.00 0.00 0.00 0.00 0.00 0.00 0.00 0.00 0.00 0.00 0.00 0.00 0.00 0.00 0.00 0.00 0.00 0.00 0.00 0.00 0.00 0.00 0.00 0.00 0.00 0.00 0.00 -0.00 -0.01 -0.00 0.02 0.02 0.03 0.04 0.05 0.05 0.00 0.00 0.00 0.00 0.01 0.00 0.00 0.00 0.00 0.00 0.00 0.00 0.00
1.19 1.20 0.74 0.44 0.44 0.44 0.15 0.21 0.08 0.08 -0.01 0.02 0.10 0.10 0.19 0.24 0.24 0.35 0.23 0.37 0.37 0.11 0.01 -0.08 -0.20 -0.20 -0.26 -0.17 -0.25 -0.25 -0.20 -0.18 -0.22 -0.22 -0.26 -0.18 -0.18 0.01 0.06 0.00 0.00 0.00 0.00 -0.00 -0.00 -0.00 -0.00 -0.00 -0.00 -0.00 -0.00 -0.00 -0.00 -0.00 0.00 0.00 0.00 0.00 0.00 0.00 0.00 0.00 0.00 0.00 0.00 0.00 0.00 0.00 0.00 0.00 0.00 0.00 0.00 0.00 0.00 0.00 0.00 0.00 0.00 0.01 0.01 0.07 0.00 0.00 0.00 0.00 0.02 0.00 0.00 0.00 0.00 0.00 0.00 0.00 0.00 0.00 0.00 0.00 0.00 0.00 0.00 0.00 0.00
1.84 1.15 0.76 0.89 0.65 0.65 0.51 0.50 0.27 0.27 -0.03 -0.01 0.05 0.05 0.11 0.24 0.24 0.37 0.38 0.44 0.44 0.17 0.05 0.03 -0.03 -0.03 -0.14 -0.02 -0.14 -0.14 -0.18 -0.21 -0.13 -0.13 -0.16 -0.19 -0.19 -0.10 0.03 0.03 0.03 0.00 0.00 -0.00 0.00 0.00 -0.00 -0.00 -0.00 -0.00 -0.00 -0.00 -0.00 -0.00 0.00 0.00 0.00 0.00 0.00 0.00 0.00 0.00 0.00 0.00 0.00 0.00 0.00 0.00 0.00 0.00 0.00 0.00 0.00 0.00 0.00 0.00 0.00 0.00 0.00 0.00 0.00 0.00 0.00 0.00 0.00 0.00 0.00 0.00 0.00 0.00 0.00 0.00 0.00 0.00 0.00 0.00 0.00 0.00 0.00 0.00 0.00 0.00 0.00
2.24 1.25 0.98 1.46 1.11 1.11 0.71 0.90 0.60 0.60 -0.12 -0.06 0.02 0.02 0.14 0.40 0.40 0.43 0.42 0.48 0.48 0.54 0.15 0.07 0.08 0.08 0.00 0.03 -0.03 -0.03 -0.11 -0.16 -0.12 -0.12 -0.08 -0.11 -0.11 -0.08 0.05 0.16 0.16 0.01 -0.00 -0.01 0.00 0.00 0.00 -0.00 -0.00 -0.00 -0.00 -0.00 -0.00 -0.00 0.00 0.00 0.00 0.00 0.00 0.00 0.00 0.00 0.00 0.00 0.00 0.00 0.00 0.00 0.01 0.01 0.00 0.00 0.00 0.00 0.00 0.00 0.00 0.00 0.00 0.00 0.00 -0.01 -0.04 -0.05 0.00 0.00 0.00 0.00 0.00 0.00 0.00 0.00 0.00 0.00 0.00 0.00 0.00 0.00 0.00 0.00 0.00 0.00 0.00
2.35 1.41 1.22 2.20 1.57 1.57 0.93 1.35 1.08 1.08 0.56 -0.07 -0.08 -0.08 -0.03 0.31 0.31 0.41 0.44 0.62 0.62 0.74 0.25 0.18 0.12 0.12 0.01 0.05 0.03 0.03 -0.02 -0.04 -0.04 -0.04 -0.08 -0.03 -0.03 -0.04 0.10 0.13 0.13 0.07 -0.01 -0.01 -0.01 -0.01 -0.01 -0.00 -0.00 -0.00 -0.00 -0.00 0.00 0.00 0.00 0.00 0.00 0.00 0.00 0.00 0.00 0.00 0.00 0.00 0.00 0.00 0.00 0.00 0.00 0.00 0.01 0.01 0.00 0.00 0.00 0.00 0.00 0.00 0.00 0.00 0.00 -0.01 -0.07 -0.07 -0.07 -0.07 0.00 -0.01 0.00 0.00 0.00 0.00 0.00 0.00 0.00 0.00 0.00 0.00 0.00 0.00 0.00 0.00 0.00
1.58 1.55 1.48 2.92 2.36 2.36 1.25 1.82 1.58 1.58 0.79 0.10 0.01 0.01 -0.01 0.55 0.55 0.62 0.55 0.65 0.65 1.06 0.39 0.29 0.19 0.19 0.24 0.07 0.03 0.03 0.04 0.06 0.06 0.06 -0.03 -0.01 -0.01 -0.00 0.18 0.17 0.17 0.18 0.02 0.02 0.00 0.00 -0.02 -0.02 -0.02 -0.02 -0.00 0.00 0.00 0.00 0.00 0.00 0.00 0.00 0.00 0.00 0.00 0.00 0.00 0.00 0.00 0.00 0.00 0.00 0.00 0.00 0.00 0.00 0.00 0.00 0.00 0.00 0.00 0.00 0.00 0.00 0.00 -0.00 -0.01 -0.12 -0.12 -0.12 -0.12 -0.05 0.00 0.00 0.01 0.01 0.00 0.00 0.00 0.03 0.03 0.01 0.00 0.00 0.00 0.00 0.00
0.86 1.18 1.34 2.27 2.60 2.60 1.54 1.98 1.88 1.88 1.00 0.23 0.11 0.11 0.35 0.87 0.87 0.93 0.85 0.59 0.59 1.00 0.91 0.29 0.20 0.20 0.24 0.16 0.02 0.02 0.02 0.04 0.09 0.09 0.05 0.06 0.06 0.05 0.25 0.21 0.21 0.20 0.12 0.10 0.02 0.02 0.00 -0.00 -0.00 -0.00 0.00 0.00 0.00 0.00 0.00 0.00 0.00 0.00 0.00 0.00 0.00 0.00 0.00 0.00 0.00 0.00 0.00 0.00 0.00 0.00 0.00 0.00 0.00 0.00 0.00 0.00 0.00 0.00 0.00 0.00 0.00 0.00 0.00 -0.05 -0.12 -0.12 -0.16 -0.16 0.24 0.24 0.07 0.03 0.01 0.01 0.03 0.18 0.18 0.19 0.02 -0.00 -0.00 -0.01 0.01
0.64 0.65 0.82 1.48 2.38 2.38 1.73 1.65 2.14 2.14 1.41 0.35 0.29 0.29 0.62 1.14 1.14 1.17 1.03 0.66 0.66 0.98 1.01 0.38 0.30 0.30 0.39 0.27 0.03 0.03 0.04 0.01 -0.03 -0.03 0.09 0.02 0.02 0.06 0.23 0.27 0.27 0.15 0.13 0.24 0.09 0.09 0.03 -0.00 -0.00 -0.00 -0.00 0.00 0.00 0.00 0.00 0.00 0.00 0.03 0.00 0.00 0.00 0.00 0.00 0.00 0.00 0.00 0.00 0.00 0.00 0.00 0.00 0.00 0.00 0.00 0.00 0.00 0.00 0.00 0.00 0.00 0.00 0.00 0.00 0.00 -0.01 -0.01 -0.12 -0.08 -0.13 -0.13 0.04 -0.00 0.04 0.04 0.05 -0.04 -0.04 -0.00 0.06 0.07 0.07 0.03 0.01
0.53 0.42 0.38 0.52 1.55 1.55 1.53 1.54 1.97 1.97 1.65 0.85 0.43 0.43 0.59 0.96 0.96 1.49 1.34 0.74 0.74 1.05 1.19 0.57 0.71 0.71 0.58 0.38 0.19 0.19 0.03 -0.03 0.01 0.01 0.15 0.10 0.10 0.11 0.30 0.38 0.38 0.17 0.12 0.26 0.26 0.26 0.12 0.02 -0.00 -0.00 -0.01 -0.01 -0.01 -0.01 -0.00 -0.00 -0.00 0.07 0.00 0.00 0.00 0.00 0.00 0.00 0.00 0.00 0.00 0.00 0.00 0.00 0.00 0.00 0.00 0.00 0.00 0.00 0.00 0.00 0.00 0.00 0.00 0.00 0.00 0.00 0.00 0.00 -0.03 -0.04 -0.03 -0.03 -0.12 -0.06 -0.04 -0.04 -0.05 -0.04 -0.04 -0.03 0.02 -0.02 -0.02 0.03 0.02
0.49 0.31 0.26 0.30 0.29 0.29 0.70 0.92 1.33 1.33 1.28 0.77 0.41 0.41 0.48 0.65 0.65 1.39 1.50 1.41 1.41 1.10 1.45 1.30 1.16 1.16 1.03 0.73 0.48 0.48 0.39 0.25 0.02 0.02 0.13 0.09 0.09 0.09 0.31 0.65 0.65 0.42 0.29 0.28 0.39 0.39 0.32 0.20 0.02 0.02 0.09 0.02 0.01 0.01 -0.02 0.29 0.29 0.06 0.01 0.02 0.02 0.00 0.00 0.00 0.00 0.00 0.00 0.00 0.00 0.00 0.00 0.00 0.00 0.00 0.00 0.00 0.00 0.00 0.00 0.00 0.00 0.00 0.00 0.00 -0.01 -0.01 -0.05 -0.09 -0.06 -0.06 -0.05 -0.05 -0.04 -0.04 -0.16 -0.12 -0.12 -0.12 -0.03 -0.02 -0.02 -0.01 0.03
0.48 0.29 0.22 0.24 0.24 0.24 0.17 0.27 0.63 0.63 0.66 0.19 0.24 0.24 0.36 0.44 0.44 1.10 1.52 1.75 1.75 1.21 1.39 1.39 1.25 1.25 1.25 1.05 0.69 0.69 0.65 0.52 0.04 0.04 0.18 0.09 0.09 0.09 0.06 0.35 0.35 0.46 0.38 0.45 0.58 0.58 0.60 0.52 0.57 0.57 0.41 0.22 0.23 0.23 0.14 0.30 0.30 0.23 0.03 0.02 0.02 0.04 0.00 0.00 0.00 0.00 0.00 0.01 0.00 0.00 0.01 0.00 0.00 0.00 0.00 0.00 0.00 0.00 0.00 0.00 0.00 0.00 0.00 0.00 -0.01 -0.01 -0.05 -0.09 -0.11 -0.11 -0.08 -0.12 -0.10 -0.10 -0.08 -0.11 -0.11 -0.11 -0.04 -0.05 -0.05 -0.01 0.00
0.45 0.35 0.25 0.24 0.28 0.28 0.18 0.19 0.23 0.23 0.30 0.06 0.08 0.08 0.14 0.27 0.27 0.69 1.14 1.62 1.62 1.54 1.52 1.35 1.32 1.32 1.36 1.25 0.72 0.72 0.91 0.83 0.53 0.53 0.29 0.16 0.16 0.03 0.14 0.34 0.34 0.69 0.52 0.59 0.72 0.72 0.81 0.82 0.98 0.98 0.82 0.63 0.48 0.48 0.37 0.33 0.33 0.25 0.12 0.03 0.03 0.05 0.05 0.03 0.00 0.00 0.00 0.04 0.03 0.03 0.02 0.01 0.00 0.00 0.00 0.01 0.01 0.00 0.00 0.00 0.00 0.00 0.00 0.00 0.00 0.00 -0.07 -0.04 -0.08 -0.08 -0.14 -0.15 -0.14 -0.14 -0.11 -0.11 -0.11 -0.10 -0.13 -0.15 -0.15 -0.14 -0.07
0.49 0.47 0.28 0.29 0.32 0.32 0.24 0.21 0.27 0.27 0.09 0.04 0.04 0.04 0.02 0.05 0.05 0.17 0.63 1.04 1.04 1.50 1.69 1.65 1.67 1.67 1.45 1.53 1.03 1.03 1.01 1.09 0.79 0.79 0.47 0.32 0.32 0.19 0.28 0.43 0.43 0.66 0.79 0.89 0.88 0.88 1.04 1.10 1.43 1.43 1.38 0.87 0.65 0.65 0.50 0.32 0.32 0.23 0.14 0.02 0.02 0.03 0.04 0.07 0.05 0.05 0.01 0.04 0.03 0.03 0.02 0.02 0.02 0.02 0.01 0.02 0.02 0.02 0.00 0.00 0.00 0.00 0.00 0.00 0.00 0.00 0.00 -0.04 -0.09 -0.09 -0.05 -0.05 -0.13 -0.13 -0.15 -0.14 -0.14 -0.13 -0.12 -0.14 -0.14 -0.17 -0.14
0.70 0.61 0.24 0.23 0.34 0.34 0.32 0.26 0.21 0.21 0.06 0.04 0.04 0.04 0.03 0.01 0.01 0.00 0.00 0.06 0.06 0.30 0.98 0.76 1.21 1.21 1.49 1.58 1.58 1.58 1.34 1.17 1.24 1.24 1.10 0.54 0.54 0.33 0.18 0.22 0.22 0.14 0.36 0.93 0.91 0.91 0.90 1.05 1.76 1.76 2.01 1.68 0.71 0.71 0.51 0.43 0.43 0.32 0.25 0.15 0.15 0.05 0.02 0.02 0.03 0.03 0.05 0.02 0.03 0.03 0.03 0.02 0.03 0.03 0.03 0.03 0.03 0.04 0.01 0.00 0.00 0.00 0.00 0.00 0.00 0.00 0.00 0.00 -0.03 -0.03 -0.06 -0.06 -0.10 -0.10 -0.14 -0.19 -0.19 -0.14 -0.11 -0.12 -0.12 -0.10 -0.14
0.88 0.60 0.21 0.17 0.22 0.22 0.25 0.21 0.16 0.16 0.07 0.03 0.04 0.04 0.02 0.02 0.02 0.01 0.03 -0.00 -0.00 0.02 0.02 0.26 0.60 0.60 0.92 1.13 1.36 1.36 1.45 1.22 1.15 1.15 1.08 0.57 0.57 0.36 0.20 0.11 0.11 0.12 0.16 0.37 0.74 0.74 0.78 0.99 1.37 1.37 1.53 1.44 1.13 1.13 0.56 0.50 0.50 0.38 0.20 0.11 0.11 0.02 0.01 0.01 0.02 0.02 0.02 0.02 0.02 0.02 0.03 0.02 0.03 0.03 0.02 0.02 0.02 0.03 0.01 0.00 0.00 0.00 -0.00 0.00 0.00 0.00 0.00 0.00 0.02 0.02 -0.02 -0.03 -0.07 -0.07 -0.13 -0.15 -0.15 -0.23 -0.19 -0.25 -0.25 -0.18 -0.12
0.70 0.78 0.24 0.16 0.15 0.15 0.16 0.09 0.11 0.11 0.12 0.04 0.05 0.05 0.04 0.02 0.02 0.03 0.02 0.01 0.01 0.00 0.01 0.08 0.20 0.20 0.40 0.62 0.83 0.83 1.19 1.35 1.19 1.19 1.07 0.90 0.90 0.41 0.24 0.15 0.15 0.14 0.15 0.20 0.44 0.44 0.62 0.83 0.78 0.78 1.14 1.14 1.02 1.02 0.61 0.38 0.38 0.28 0.21 0.03 0.03 -0.01 -0.01 -0.01 0.00 0.00 0.01 0.01 0.01 0.01 0.01 0.01 0.02 0.02 0.02 0.02 0.02 0.03 0.03 0.00 0.00 0.00 0.01 0.00 0.00 0.00 0.01 0.00 0.01 0.01 0.04 0.03 -0.03 -0.03 -0.08 -0.07 -0.07 -0.16 -0.24 -0.19 -0.19 -0.19 -0.19
0.36 0.54 0.35 0.18 0.14 0.14 0.10 0.04 0.07 0.07 0.09 0.04 0.05 0.05 0.05 0.05 0.05 0.03 0.02 0.02 0.02 0.01 0.01 0.03 0.07 0.07 0.18 0.42 0.33 0.33 0.54 0.36 1.06 1.06 1.06 0.93 0.93 0.48 0.31 0.21 0.21 0.22 0.15 0.15 0.18 0.18 0.39 0.34 0.47 0.47 0.83 0.90 0.79 0.79 0.36 0.18 0.18 0.14 0.10 0.01 0.01 0.00 -0.01 -0.01 -0.01 -0.01 0.00 0.01 0.01 0.01 0.01 0.01 0.01 0.01 0.02 0.02 0.02 0.03 0.03 0.01 0.01 0.01 0.01 0.01 0.01 0.01 0.00 0.00 0.00 0.00 0.03 0.03 0.02 0.02 -0.03 -0.03 -0.03 -0.05 -0.13 -0.14 -0.14 -0.18 -0.22
0.10 0.27 0.36 0.28 0.17 0.17 0.16 0.04 0.02 0.02 0.03 0.03 0.03 0.03 0.04 0.04 0.04 0.05 0.02 0.02 0.02 0.02 0.00 0.00 0.04 0.04 0.08 0.19 0.23 0.23 0.19 0.13 0.19 0.19 0.88 0.83 0.83 0.66 0.39 0.29 0.29 0.30 0.16 0.13 0.12 0.12 0.14 0.20 0.27 0.27 0.36 0.63 0.54 0.54 0.19 0.10 0.10 0.05 0.03 0.02 0.02 0.00 0.00 -0.01 -0.02 -0.02 -0.00 0.00 0.01 0.01 0.01 0.01 0.02 0.02 0.02 0.02 0.02 0.02 0.02 0.02 0.02 0.01 0.01 0.01 0.01 0.01 0.01 0.00 0.00 0.00 0.02 0.05 0.06 0.06 0.03 0.01 0.01 0.01 -0.01 -0.07 -0.07 -0.11 -0.20
0.02 0.06 0.16 0.20 0.25 0.25 0.12 0.08 0.04 0.04 0.02 0.02 0.02 0.02 0.03 0.03 0.03 0.03 0.02 0.02 0.02 0.02 0.02 -0.00 0.01 0.01 0.04 0.09 0.19 0.19 0.15 0.09 0.06 0.06 0.34 0.62 0.62 0.58 0.41 0.40 0.40 0.41 0.30 0.13 0.08 0.08 0.07 0.12 0.16 0.16 0.19 0.25 0.33 0.33 0.10 0.04 0.04 0.02 0.01 0.01 0.01 0.00 0.00 0.00 -0.01 -0.01 -0.00 0.01 0.01 0.01 0.01 0.01 0.02 0.02 0.03 0.02 0.02 0.02 0.03 0.02 0.02 0.02 0.03 0.01 0.01 0.01 0.01 0.02 0.02 0.02 0.02 0.02 0.09 0.09 0.05 0.08 0.08 0.07 -0.01 -0.04 -0.04 -0.04 -0.11
0.05 0.04 0.05 0.07 0.01 0.01 0.02 0.06 0.06 0.06 0.04 0.02 0.02 0.02 0.02 0.02 0.02 0.02 0.02 0.02 0.02 0.03 0.03 0.01 0.00 0.00 0.02 0.05 0.11 0.11 0.16 0.09 0.05 0.05 0.06 0.25 0.25 0.45 0.39 0.36 0.36 0.37 0.35 0.15 0.09 0.09 0.06 0.03 0.08 0.08 0.10 0.12 0.16 0.16 0.02 -0.00 -0.00 -0.00 0.00 0.00 0.00 0.00 0.00 0.00 0.00 0.00 0.02 0.03 0.02 0.02 0.01 0.01 0.02 0.02 0.02 0.03 0.03 0.02 0.02 0.02 0.02 0.03 0.02 0.03 0.02 0.02 0.01 -0.00 0.02 0.02 -0.01 -0.01 0.01 0.01 0.09 0.09 0.09 0.05 0.03 0.05 0.05 0.02 -0.03
0.03 0.05 0.05 0.02 0.01 0.01 0.01 0.00 0.00 0.00 0.03 0.03 0.04 0.04 0.04 0.02 0.02 0.01 0.02 0.01 0.01 0.02 0.02 0.01 0.01 0.01 0.01 0.02 0.04 0.04 0.04 0.05 0.04 0.04 0.03 0.05 0.05 0.14 0.31 0.26 0.26 0.27 0.28 0.25 0.08 0.08 0.05 0.03 0.02 0.02 0.04 0.03 0.04 0.04 0.01 -0.00 -0.00 -0.00 0.00 -0.00 -0.00 0.00 0.00 0.00 0.01 0.01 0.02 0.02 0.01 0.01 0.01 0.02 0.02 0.02 0.01 0.02 0.02 0.02 0.03 0.02 0.02 0.03 0.02 0.02 0.01 0.01 0.01 -0.01 -0.01 -0.01 0.01 0.01 0.01 0.01 0.08 0.13 0.13 0.07 0.05 0.01 0.01 0.12 0.06
0.04 0.03 0.02 0.02 0.01 0.01 0.00 0.00 0.01 0.01 0.00 0.01 0.02 0.02 0.03 0.03 0.03 0.01 0.01 0.00 0.00 0.01 0.01 0.01 0.01 0.01 0.01 0.02 0.02 0.02 0.03 0.02 0.02 0.02 0.03 0.02 0.02 0.03 0.11 0.03 0.03 0.11 0.14 0.17 0.15 0.15 0.04 0.01 0.01 0.01 0.01 0.01 0.01 0.01 0.01 0.01 0.01 0.01 0.00 0.00 0.00 0.00 -0.00 -0.00 0.02 0.02 0.02 0.02 0.01 0.01 0.02 0.01 0.00 0.00 0.00 0.01 0.01 0.01 0.03 0.03 0.03 0.04 0.03 0.02 0.02 0.02 -0.00 0.01 0.01 0.01 0.01 0.01 0.01 0.01 0.07 0.15 0.15 0.08 0.03 0.07 0.07 0.13 0.19
0.04 0.03 0.02 0.01 0.01 0.01 -0.00 -0.00 0.00 0.00 0.00 0.00 0.00 0.00 0.00 0.01 0.01 0.01 0.01 0.00 0.00 0.00 0.01 0.00 0.00 0.00 0.00 0.01 0.02 0.02 0.04 0.04 0.01 0.01 0.00 0.01 0.01 0.00 0.02 0.00 0.00 0.01 0.03 0.06 0.06 0.06 0.01 0.00 0.00 0.00 -0.04 0.01 0.01 0.01 0.01 0.01 0.01 0.01 0.01 0.01 0.01 -0.00 -0.00 0.00 0.00 0.00 -0.02 -0.01 0.00 0.00 0.01 0.00 -0.00 -0.00 -0.01 -0.01 -0.01 -0.03 -0.00 0.03 0.03 0.00 0.03 0.03 0.03 0.03 0.03 0.03 0.02 0.02 0.03 0.03 0.03 0.03 0.08 0.13 0.13 0.10 0.07 0.17 0.17 0.17 0.20
0.06 0.04 0.02 0.01 0.01 0.01 0.00 0.00 -0.00 -0.00 -0.00 0.00 0.00 0.00 -0.00 -0.00 -0.00 -0.00 -0.00 0.01 0.01 0.01 0.02 -0.00 -0.01 -0.01 -0.00 0.00 0.02 0.02 0.04 0.05 0.01 0.01 -0.00 -0.00 -0.00 0.00 -0.01 -0.00 -0.00 0.00 0.00 0.00 0.01 0.01 0.00 -0.00 -0.01 -0.01 -0.02 -0.00 -0.00 -0.00 0.00 0.00 0.00 0.01 0.02 0.02 0.02 0.01 -0.02 -0.03 -0.03 -0.03 -0.01 -0.03 -0.02 -0.02 -0.03 -0.00 0.01 0.01 -0.04 -0.07 -0.07 -0.07 -0.05 -0.04 -0.04 -0.05 -0.03 0.02 0.03 0.03 0.01 0.03 0.05 0.05 0.06 0.07 0.09 0.09 0.08 0.09 0.09 0.08 0.07 0.09 0.09 0.13 0.15
0.05 0.03 0.02 0.01 0.00 0.00 0.00 0.01 -0.01 -0.01 -0.00 -0.00 -0.00 -0.00 -0.00 -0.00 -0.00 -0.00 -0.01 0.00 0.00 0.01 0.02 0.01 -0.01 -0.01 -0.01 -0.00 0.00 0.00 0.02 0.03 0.01 0.01 -0.01 -0.01 -0.01 -0.01 -0.00 -0.00 -0.00 -0.00 0.00 0.00 0.00 0.00 0.00 0.00 -0.00 -0.00 -0.00 -0.02 0.00 0.00 0.00 0.00 0.00 0.00 0.02 0.02 0.02 0.02 0.02 0.01 0.01 0.01 0.03 0.02 0.01 0.01 0.00 0.01 0.01 0.01 -0.00 -0.04 -0.04 -0.01 -0.06 -0.05 -0.05 -0.06 -0.06 -0.03 0.01 0.01 -0.05 -0.00 0.03 0.03 -0.03 0.05 0.11 0.11 0.11 0.06 0.06 0.07 0.06 0.04 0.04 0.06 0.08
0.11 0.04 0.01 0.01 0.01 0.01 0.00 -0.00 -0.01 -0.01 -0.01 -0.00 -0.00 -0.00 -0.00 -0.00 -0.00 -0.00 -0.01 -0.00 -0.00 -0.00 -0.00 0.00 -0.00 -0.00 -0.01 -0.01 -0.00 -0.00 0.00 0.01 0.01 0.01 -0.01 -0.01 -0.01 -0.01 -0.00 0.00 0.00 0.00 -0.00 -0.00 0.00 0.00 0.00 0.00 0.00 0.00 0.00 -0.01 -0.01 -0.01 0.00 -0.00 -0.00 -0.01 -0.00 0.00 0.00 0.01 0.02 0.02 0.02 0.02 0.02 0.02 0.02 0.02 0.02 0.01 0.01 0.01 0.01 0.04 0.04 0.01 0.02 0.00 0.00 0.00 0.01 -0.03 -0.06 -0.06 -0.05 -0.05 -0.03 -0.03 -0.05 -0.04 0.04 0.04 0.05 0.06 0.06 0.06 0.02 0.03 0.03 0.03 0.05
0.07 0.06 0.02 0.00 0.00 0.00 -0.00 -0.00 -0.01 -0.01 -0.00 -0.00 -0.00 -0.00 0.00 -0.00 -0.00 -0.00 -0.00 -0.01 -0.01 -0.01 -0.01 -0.00 -0.01 -0.01 -0.01 -0.01 -0.00 -0.00 0.00 0.00 0.00 0.00 -0.00 -0.01 -0.01 -0.01 -0.02 -0.00 -0.00 -0.00 -0.00 -0.00 0.00 0.00 0.00 0.00 0.00 0.00 0.01 -0.00 -0.00 -0.00 -0.03 0.00 0.00 0.00 0.00 -0.01 -0.01 0.02 0.01 0.01 0.01 0.01 0.01 0.02 0.02 0.02 0.02 0.02 0.03 0.03 0.03 0.01 0.01 0.01 0.02 0.02 0.02 0.01 0.01 -0.00 -0.03 -0.03 0.00 -0.02 -0.05 -0.05 -0.04 -0.03 -0.02 -0.02 0.01 0.02 0.02 0.02 0.03 0.02 0.02 0.02 0.02
0.02 0.08 0.05 0.01 -0.00 -0.00 -0.00 -0.01 -0.01 -0.01 -0.00 -0.00 0.00 0.00 0.00 0.00 0.00 0.00 0.00 0.00 0.00 -0.00 -0.01 -0.01 -0.01 -0.01 -0.01 0.00 -0.00 -0.00 -0.00 -0.00 0.00 0.00 -0.00 -0.00 -0.00 -0.00 -0.01 -0.02 -0.02 -0.02 -0.00 -0.00 -0.01 -0.01 -0.00 0.00 0.00 0.00 0.00 0.00 0.00 0.00 0.00 0.01 0.01 0.01 -0.02 0.01 0.01 0.01 -0.00 0.01 0.01 0.01 0.01 0.02 0.04 0.04 0.02 0.02 0.03 0.03 0.02 -0.00 -0.00 0.00 -0.00 0.00 0.00 0.01 0.00 -0.00 -0.00 -0.00 -0.01 -0.02 -0.02 -0.02 -0.04 -0.04 -0.03 -0.03 -0.01 0.01 0.01 0.01 0.01 0.01 0.01 0.02 0.01
-0.00 0.02 0.04 0.02 0.00 0.00 -0.01 -0.01 -0.01 -0.01 -0.01 -0.02 -0.02 -0.02 -0.02 -0.01 -0.01 -0.01 -0.01 -0.00 -0.00 0.00 0.00 -0.00 -0.00 -0.00 0.00 -0.01 -0.02 -0.02 -0.02 -0.00 0.00 0.00 0.00 -0.00 -0.00 -0.02 -0.01 0.00 0.00 -0.02 -0.03 -0.03 -0.04 -0.04 -0.04 -0.03 -0.01 -0.01 -0.00 0.01 0.00 0.00 0.00 0.01 0.01 0.01 0.01 0.01 0.01 0.01 0.01 0.01 0.01 0.01 0.01 0.01 0.01 0.01 0.01 0.01 0.01 0.01 0.01 -0.01 -0.01 -0.02 -0.00 0.02 0.02 0.03 0.03 0.00 -0.01 -0.01 -0.02 -0.02 -0.01 -0.01 -0.00 -0.03 -0.02 -0.02 0.04 0.04 0.04 0.04 0.02 0.04 0.04 0.03 0.02
-0.00 0.00 -0.00 0.00 -0.01 -0.01 -0.01 0.00 0.01 0.01 -0.00 -0.02 -0.03 -0.03 -0.04 -0.08 -0.08 -0.09 -0.12 -0.15 -0.15 -0.09 -0.05 -0.04 -0.00 -0.00 -0.00 -0.01 -0.01 -0.01 -0.04 -0.06 -0.07 -0.07 -0.09 -0.09 -0.09 -0.05 -0.05 -0.04 -0.04 -0.03 -0.01 -0.02 -0.01 -0.01 -0.03 -0.03 -0.02 -0.02 -0.02 -0.01 0.01 0.01 0.00 0.00 0.00 0.01 0.01 0.01 0.01 0.01 0.01 0.01 0.01 0.01 0.01 0.01 0.01 0.01 0.01 0.01 0.02 0.02 0.02 -0.01 -0.01 -0.02 -0.01 0.00 0.00 0.01 0.02 -0.00 -0.01 -0.01 0.00 -0.01 -0.01 -0.01 0.00 0.01 0.03 0.03 0.06 0.07 0.07 0.07 0.07 0.05 0.05 0.04 0.03
0.01 0.01 0.01 0.00 -0.00 -0.00 -0.01 0.00 0.02 0.02 0.01 -0.01 -0.01 -0.01 -0.01 -0.01 -0.01 -0.01 -0.02 -0.01 -0.01 -0.01 -0.05 -0.07 -0.07 -0.07 -0.09 -0.14 -0.12 -0.12 0.00 -0.01 -0.03 -0.03 -0.03 -0.04 -0.04 -0.00 -0.00 -0.00 -0.00 -0.00 -0.00 -0.00 -0.00 -0.00 -0.01 -0.02 -0.02 -0.02 -0.02 -0.01 -0.01 -0.01 0.01 0.00 0.00 0.00 0.00 0.00 0.00 0.00 0.00 0.01 0.00 0.00 0.00 0.00 0.00 0.00 0.00 -0.00 0.00 0.00 0.01 0.00 0.00 -0.01 -0.01 -0.02 -0.02 -0.01 -0.01 -0.00 -0.00 -0.00 -0.01 0.00 -0.00 -0.00 -0.01 -0.01 0.00 0.00 -0.01 0.04 0.04 0.07 0.08 0.07 0.07 0.06 0.04
0.00 0.00 0.01 0.00 0.00 0.00 -0.00 -0.01 0.01 0.01 0.02 0.00 -0.01 -0.01 -0.01 -0.01 -0.01 -0.02 -0.02 -0.01 -0.01 -0.00 -0.01 -0.02 -0.05 -0.05 -0.00 -0.03 -0.08 -0.08 -0.06 -0.00 -0.00 -0.00 -0.00 -0.00 -0.00 -0.00 0.00 -0.00 -0.00 0.00 0.00 0.00 0.00 0.00 -0.00 -0.00 -0.01 -0.01 -0.01 -0.02 -0.02 -0.02 -0.01 0.01 0.01 0.00 0.00 0.00 0.00 0.00 0.00 0.00 0.00 0.00 0.00 0.00 0.00 0.00 0.00 0.00 0.00 0.00 0.00 0.00 0.00 -0.00 -0.01 -0.01 -0.01 0.00 -0.00 -0.00 -0.02 -0.02 -0.02 -0.01 -0.02 -0.02 -0.01 -0.01 -0.01 -0.01 -0.04 -0.02 -0.02 0.01 0.08 0.03 0.03 0.03 0.03